Погода Гышгы

Погода Гышгы : погода сейчас, прогноз погоды и архив. Всё, что Вы хотите узнать о погоде Гышгы!

Поиск расширенной информации на нашем сайте:

Другие новости

Новости СМИ2

Главная страница сайта

Новости сайта

03.07.2017

Напоминаем, что на нашем специализированном сайте Метеоцентр.Азия вы можете получить высокодетализированные автоматические прогнозы погоды по пунктам России, СНГ и мира в авиационном формате (включающие направление и скорость ветра, видимость, явления погоды, количество и форму облачности, нижнюю и верхнюю границу облачности).

Рекомендуем: Paprika паприка пицца вегетарианская pizza vegetariana.

Погода Гышгы - сегодня

Время (UTC), дата Ветер
(°,м/с) 
Видим.   Явления Облачность Т
(°С)
Тd
(°С)
f(%) Тe
(°С)
Pmin
(гПа)
dP
(гПа)
Po
(мм)
O2
(г/м3)
Тmin Tmax R s Состояние
почвы
00 18.09.17 200 (Ю) 4000 м    ясно 
+11 -2.5 39 +11  1019.7  0.2  710  275           
03 18.09.17 230 (ЮЗ) 4000 м    ясно 
+10.2 -2.7 40 +10  1020.6  0.6  710  276           
06 18.09.17 140 (ЮВ) 4000 м    ясно 
+23.4 +0.6 22 +23  1017.7  0.5             
09 18.09.17 040 (СВ) 4000 м    ясно 
+27.5 -3 13 +28  1014.8    709  260           
12 18.09.17 050 (СВ) 4000 м    ясно 
+28.2 -4.7 11 +28  1013.4  -1.1  708  259           
15 18.09.17 010 (С) 4000 м    ясно 
+23.3 -1.7 19 +23  1015  0.4  709  263    +29      мокрая 
18 18.09.17 тихо ()   4000 м    ясно 
+17.6 +1.1 33 +18  1017  0.6  709  268    +29       
21 18.09.17 240 (ЮЗ) 4000 м    ясно 
+15 -0.9 34 +16  1017.3  -0.4  709  271           
00 19.09.17 220 (ЮЗ) 4000 м    ясно 
+11.9 -2.5 37 +13  1018.4  0.3  709  274           
03 19.09.17 240 (ЮЗ) 4000 м    ясно 
+11 -2.5 39 +11  1019.4  0.7  710  275           
06 19.09.17 270 (З) 4000 м    ясно 
+23.2 +0.2 22 +23  1016.1  -0.2             
09 19.09.17 040 (СВ) 4000 м    ясно 
+28.6 -1.9 14 +29  1012.9    708  258           
12 19.09.17 050 (СВ) 4000 м    ясно 
+30.8 -2.2 12 +31  1010.8  -1.5  707  256           
15 19.09.17 020 (С) 4000 м    ясно 
+27.3 -2.5 14 +27  1012.2  0.6  707  259    +31.2       
18 19.09.17 060 (СВ) 4000 м    ясно 
+21.7 +1.3 26 +22  1014.8  1.2  708  264    +31.2       
21 19.09.17 160 (Ю) 4000 м    ясно 
+16.8 -0.2 31 +18  1016  708  269           
00 20.09.17 240 (ЮЗ) 4000 м    ясно 
+14 -1.2 35 +15  1016.7  -0.1  708  271           
03 20.09.17 210 (ЮЗ) 4000 м    ясно 
+12.2 -2.7 35 +13  1017.8  0.6  709  274           
06 20.09.17 080 (В) 4000 м    ясно 
+25.2 +1.7 22 +25  1014.2  -0.3             
09 20.09.17 030 (СВ) 4000 м    ясно 
+29.3 +0 15 +29  1011.6    707  257           
12 20.09.17 020 (С) 4000 м    ясно 
+29.9 -4.4 10 +30  1010.7  -0.7  707  257           
15 20.09.17 090 (В) 4000 м    ясно 
+24.2 +0.9 22 +24  1012.4  0.3  707  261    +30.6       
18 20.09.17 130 (ЮВ) 4000 м    ясно 
+18.2 +1.5 33 +20  1014.1  0.2  707  267    +30.6       
21 20.09.17 240 (ЮЗ) 4000 м    ясно 
+15.2 +0.9 38 +17  1014.6  -0.2  707  270           
00 21.09.17 220 (ЮЗ) 4000 м    ясно 
+13.4 -1.4 36 +14  1015.2  707  272           
Время (UTC), дата Ветер
(°,м/с) 
Видим.   Явления Облачность Т
(°С)
Тd
(°С)
f(%) Тe
(°С)
Pmin
(гПа)
dP
(гПа)
Po
(мм)
O2
(г/м3)
Тmin Tmax R s Состояние
почвы

Для получения пояснительной информации подведите курсор к названию столбца.

ПОГОДА Гышгы - архив

Всё, что Вы хотите узнать о погоде Гышгы - удобно и подробно!

Выберите нужную дату (начиная с 1 января 2015* года) и нажмите кнопку "Найти".
Будут отображены архивные сводки погоды по пункту Гышгы, начиная с указанной даты.


Отображать данные в формате CSV (для использования в таблицах Excel)


Внимание! Наш архив погоды предназначен исключительно для личного некоммерческого использования в познавательных целях. Если Вам необходимы официальные справки о состоянии погоды (для производственных, юридических, коммерческих и т.п. целей), обращайтесь в органы Росгидромета.

*Примечание: данная дата относится к архиву по метеостанциям СССР (Россия, СНГ, Балтия).
Архив по метеостанциям Зарубежной Европы и Азии (кроме Китая) хранится 10 дней, по другим регионам земного шара (Китай, Африка, Америка, Австралия, Океания) - 1 день.

Гышгы - район местоположения метеостанции


Название, широта, долгота, высота метеостанции:
Гышгы (Кушка) 35.3°ш. 62.3°д. 625 м над ур. моря [Туркменистан]

Дополнительная информация

В oтличие oт бoльшинства пoгoдных сайтoв мы публикуем пoдрoбную метеoинфoрмацию в детальнoм прoфессиoнальнoм фoрмате.

Характеристики температуры и влажнoсти вoздуха измеряются на высoте 2 м в тени вдали oт зданий и деревьев.
Скoрoсть ветра измеряется на высoте 10 м (на урoвне рoста челoвека скoрoсть ветра ниже в 1.5-2 раза). Если метеoстанция нахoдится в гoрoде или в лесу, тo скoрoсть ветра занижена на 2-4 м/с пo сравнению с oткрытым местoм. Скoрoсть ветра над акватoриями крупных рек и oзёр, а также на вершинах хoлмoв на 2-5 м/с выше, чем в oбычных услoвиях.
Атмoсфернoе давление в разных тoчках местнoсти мoжет значительнo oтличаться oт давления на метеoстанции, в зависимoсти oт услoвий рельефа (при пoдъёме на 10 м давление пoнижается примернo на 1 мм рт.ст.).